Time,TemperatureF,DewpointF,PressureIn,WindDirection,WindDirectionDegrees,WindSpeedMPH,WindSpeedGustMPH,Humidity,HourlyPrecipIn,Conditions,Clouds,dailyrainin,SoftwareType,DateUTC
2013-03-02 00:01:00,24.0,24.0,30.25,NW,325,12.0,13.0,100,0.00,,,0.00,,2013-03-02 06:01:00,
2013-03-02 00:11:00,24.0,24.0,30.25,NW,325,12.0,13.0,100,0.00,,,0.00,,2013-03-02 06:11:00,
2013-03-02 00:21:00,24.0,24.0,30.25,NNW,331,10.0,13.0,100,0.00,,,0.00,,2013-03-02 06:21:00,
2013-03-02 00:31:00,24.0,24.0,30.25,NW,317,10.0,16.0,100,0.00,,,0.00,,2013-03-02 06:31:00,
2013-03-02 00:42:00,24.0,24.0,30.25,NW,317,10.0,16.0,100,0.00,,,0.00,,2013-03-02 06:42:00,
2013-03-02 00:51:00,24.0,24.0,30.24,NW,326,10.0,13.0,100,0.00,,,0.00,,2013-03-02 06:51:00,
2013-03-02 01:01:00,24.0,24.0,30.24,NW,320,10.0,16.0,100,0.00,,,0.00,,2013-03-02 07:01:00,
2013-03-02 01:11:00,24.0,24.0,30.24,NW,323,10.0,14.0,100,0.00,,,0.00,,2013-03-02 07:11:00,
2013-03-02 01:21:00,24.0,24.0,30.24,NW,323,10.0,14.0,100,0.00,,,0.00,,2013-03-02 07:21:00,
2013-03-02 01:32:00,24.0,24.0,30.24,NW,320,10.0,13.0,100,0.00,,,0.00,,2013-03-02 07:32:00,
2013-03-02 01:42:00,24.0,24.0,30.24,NW,320,10.0,13.0,100,0.00,,,0.00,,2013-03-02 07:42:00,
2013-03-02 01:51:00,25.0,25.0,30.24,NW,322,8.0,12.0,100,0.00,,,0.00,,2013-03-02 07:51:00,
2013-03-02 02:01:00,25.0,25.0,30.24,NW,322,9.0,12.0,100,0.00,,,0.00,,2013-03-02 08:01:00,
2013-03-02 02:11:00,25.0,25.0,30.24,NW,322,9.0,12.0,100,0.00,,,0.00,,2013-03-02 08:11:00,
2013-03-02 02:21:00,25.0,25.0,30.24,NW,324,10.0,13.0,100,0.00,,,0.00,,2013-03-02 08:21:00,
2013-03-02 02:32:00,24.0,24.0,30.24,NW,325,12.0,14.0,100,0.00,,,0.00,,2013-03-02 08:32:00,
2013-03-02 02:42:00,24.0,24.0,30.24,NW,325,12.0,14.0,100,0.00,,,0.00,,2013-03-02 08:42:00,
2013-03-02 02:52:00,24.0,24.0,30.24,NW,317,10.0,14.0,100,0.00,,,0.00,,2013-03-02 08:52:00,
2013-03-02 03:01:00,24.0,24.0,30.24,NW,317,10.0,14.0,100,0.00,,,0.00,,2013-03-02 09:01:00,
2013-03-02 03:11:00,24.0,24.0,30.23,NNW,328,8.0,10.0,100,0.00,,,0.00,,2013-03-02 09:11:00,
2013-03-02 03:21:00,24.0,24.0,30.23,NNW,328,8.0,10.0,100,0.00,,,0.00,,2013-03-02 09:21:00,
2013-03-02 03:32:00,24.0,24.0,30.23,WNW,303,12.0,15.0,100,0.00,,,0.00,,2013-03-02 09:32:00,
2013-03-02 03:42:00,24.0,24.0,30.23,WNW,303,12.0,15.0,100,0.00,,,0.00,,2013-03-02 09:42:00,
2013-03-02 03:51:00,24.0,24.0,30.22,NW,326,10.0,16.0,100,0.00,,,0.00,,2013-03-02 09:51:00,
2013-03-02 04:01:00,24.0,24.0,30.22,NNW,328,12.0,16.0,100,0.00,,,0.00,,2013-03-02 10:01:00,
2013-03-02 04:16:00,24.0,24.0,30.22,NNW,328,12.0,16.0,100,0.00,,,0.00,,2013-03-02 10:16:00,
2013-03-02 04:22:00,24.0,24.0,30.22,NNW,328,12.0,12.0,100,0.00,,,0.00,,2013-03-02 10:22:00,
2013-03-02 04:32:00,24.0,24.0,30.22,NW,317,10.0,13.0,100,0.00,,,0.00,,2013-03-02 10:32:00,
2013-03-02 04:42:00,24.0,24.0,30.22,NW,317,10.0,13.0,100,0.00,,,0.00,,2013-03-02 10:42:00,
2013-03-02 04:51:00,24.0,24.0,30.22,NW,317,10.0,13.0,100,0.00,,,0.00,,2013-03-02 10:51:00,
2013-03-02 05:01:00,24.0,24.0,30.23,NW,323,8.0,14.0,100,0.00,,,0.00,,2013-03-02 11:01:00,
2013-03-02 05:11:00,24.0,24.0,30.23,NW,323,8.0,14.0,100,0.00,,,0.00,,2013-03-02 11:11:00,
2013-03-02 05:21:00,24.0,24.0,30.23,NW,322,9.0,13.0,100,0.00,,,0.00,,2013-03-02 11:21:00,
2013-03-02 05:32:00,24.0,24.0,30.23,NW,318,10.0,14.0,100,0.00,,,0.00,,2013-03-02 11:32:00,
2013-03-02 05:42:00,24.0,24.0,30.23,NW,318,10.0,14.0,100,0.00,,,0.00,,2013-03-02 11:42:00,
2013-03-02 05:52:00,24.0,24.0,30.24,NW,323,9.0,13.0,100,0.00,,,0.00,,2013-03-02 11:52:00,
2013-03-02 06:02:00,24.0,24.0,30.24,WNW,303,10.0,14.0,100,0.00,,,0.00,,2013-03-02 12:02:00,
2013-03-02 06:11:00,24.0,24.0,30.24,WNW,303,10.0,14.0,100,0.00,,,0.00,,2013-03-02 12:11:00,
2013-03-02 06:21:00,24.0,24.0,30.24,NW,321,9.0,15.0,100,0.00,,,0.00,,2013-03-02 12:21:00,
2013-03-02 06:33:00,24.0,24.0,30.24,NNW,328,10.0,14.0,100,0.00,,,0.00,,2013-03-02 12:33:00,
2013-03-02 06:43:00,24.0,24.0,30.24,NNW,328,10.0,14.0,100,0.00,,,0.00,,2013-03-02 12:43:00,
2013-03-02 06:53:00,24.0,24.0,30.24,NW,304,10.0,10.0,100,0.00,,,0.00,,2013-03-02 12:53:00,
2013-03-02 07:01:00,23.0,23.0,30.25,NW,321,9.0,13.0,100,0.00,,,0.00,,2013-03-02 13:01:00,
2013-03-02 07:11:00,23.0,23.0,30.25,NW,321,9.0,13.0,100,0.00,,,0.00,,2013-03-02 13:11:00,
2013-03-02 07:21:00,24.0,24.0,30.25,NNW,329,9.0,14.0,100,0.00,,,0.00,,2013-03-02 13:21:00,
2013-03-02 07:32:00,24.0,24.0,30.26,NNW,335,10.0,13.0,100,0.00,,,0.00,,2013-03-02 13:32:00,
2013-03-02 07:42:00,24.0,24.0,30.26,NNW,335,10.0,13.0,100,0.00,,,0.00,,2013-03-02 13:42:00,
2013-03-02 07:52:00,24.0,24.0,30.26,NW,313,9.0,14.0,100,0.00,,,0.00,,2013-03-02 13:52:00,
2013-03-02 08:01:00,25.0,25.0,30.26,NW,319,10.0,13.0,100,0.00,,,0.00,,2013-03-02 14:01:00,
2013-03-02 08:11:00,25.0,25.0,30.26,NW,319,10.0,13.0,100,0.00,,,0.00,,2013-03-02 14:11:00,
2013-03-02 08:21:00,25.0,25.0,30.27,NW,323,8.0,10.0,100,0.00,,,0.00,,2013-03-02 14:21:00,
2013-03-02 08:32:00,25.0,25.0,30.27,NW,319,9.0,12.0,100,0.00,,,0.00,,2013-03-02 14:32:00,
2013-03-02 08:42:00,25.0,25.0,30.27,NW,319,9.0,12.0,100,0.00,,,0.00,,2013-03-02 14:42:00,
2013-03-02 08:52:00,26.0,26.0,30.27,NW,324,8.0,13.0,100,0.00,,,0.00,,2013-03-02 14:52:00,
2013-03-02 09:02:00,28.0,28.0,30.27,NNW,329,9.0,14.0,100,0.00,,,0.00,,2013-03-02 15:02:00,
2013-03-02 09:11:00,28.0,28.0,30.27,NNW,329,9.0,14.0,100,0.00,,,0.00,,2013-03-02 15:11:00,
2013-03-02 09:21:00,29.0,29.0,30.27,WNW,303,8.0,13.0,100,0.00,,,0.00,,2013-03-02 15:21:00,
2013-03-02 09:32:00,29.0,29.0,30.27,WNW,303,8.0,13.0,100,0.00,,,0.00,,2013-03-02 15:32:00,
2013-03-02 09:42:00,29.0,29.0,30.27,WNW,303,8.0,13.0,100,0.00,,,0.00,,2013-03-02 15:42:00,
2013-03-02 09:52:00,32.0,32.0,30.27,NNW,332,10.0,12.0,100,0.00,,,0.00,,2013-03-02 15:52:00,
2013-03-02 10:02:00,33.0,33.0,30.27,NNW,327,10.0,14.0,100,0.00,,,0.00,,2013-03-02 16:02:00,
2013-03-02 10:11:00,33.0,33.0,30.27,NNW,327,10.0,14.0,100,0.00,,,0.00,,2013-03-02 16:11:00,
2013-03-02 10:21:00,34.0,34.0,30.27,NW,320,7.0,13.0,100,0.00,,,0.00,,2013-03-02 16:21:00,
2013-03-02 10:32:00,35.0,35.0,30.27,NW,323,6.0,14.0,100,0.00,,,0.00,,2013-03-02 16:32:00,
2013-03-02 10:42:00,35.0,35.0,30.27,NW,323,6.0,14.0,100,0.00,,,0.00,,2013-03-02 16:42:00,
2013-03-02 10:51:00,32.0,32.0,30.27,NW,319,6.0,7.0,100,0.00,,,0.00,,2013-03-02 16:51:00,
2013-03-02 11:01:00,32.0,32.0,30.27,NW,319,6.0,7.0,100,0.00,,,0.00,,2013-03-02 17:01:00,
2013-03-02 11:11:00,32.0,32.0,30.27,NW,319,6.0,7.0,100,0.00,,,0.00,,2013-03-02 17:11:00,
2013-03-02 11:32:00,32.0,32.0,30.27,North,357,7.0,10.0,100,0.00,,,0.00,,2013-03-02 17:32:00,
2013-03-02 11:42:00,32.0,32.0,30.27,North,357,7.0,10.0,100,0.00,,,0.00,,2013-03-02 17:42:00,
2013-03-02 11:52:00,31.0,31.0,30.27,North,0,9.0,13.0,100,0.00,,,0.00,,2013-03-02 17:52:00,
2013-03-02 12:02:00,33.0,33.0,30.27,NW,316,6.0,8.0,100,0.00,,,0.00,,2013-03-02 18:02:00,
2013-03-02 12:11:00,33.0,33.0,30.27,NW,316,6.0,8.0,100,0.00,,,0.00,,2013-03-02 18:11:00,
2013-03-02 12:22:00,34.0,34.0,30.27,NW,320,7.0,10.0,100,0.00,,,0.00,,2013-03-02 18:22:00,
2013-03-02 12:32:00,33.0,33.0,30.27,WNW,301,7.0,8.0,100,0.00,,,0.00,,2013-03-02 18:32:00,
2013-03-02 12:42:00,33.0,33.0,30.27,WNW,301,7.0,8.0,100,0.00,,,0.00,,2013-03-02 18:42:00,
2013-03-02 12:52:00,33.0,33.0,30.26,WNW,302,8.0,8.0,100,0.00,,,0.00,,2013-03-02 18:52:00,
2013-03-02 13:01:00,33.0,33.0,30.26,WNW,302,8.0,8.0,100,0.00,,,0.00,,2013-03-02 19:01:00,
2013-03-02 13:11:00,33.0,33.0,30.26,WNW,302,8.0,8.0,100,0.00,,,0.00,,2013-03-02 19:11:00,
2013-03-02 13:21:00,31.0,31.0,30.26,NW,304,9.0,12.0,100,0.00,,,0.00,,2013-03-02 19:21:00,
2013-03-02 13:32:00,31.0,31.0,30.25,NNW,332,8.0,10.0,100,0.00,,,0.00,,2013-03-02 19:32:00,
2013-03-02 13:42:00,31.0,31.0,30.25,NNW,332,8.0,10.0,100,0.00,,,0.00,,2013-03-02 19:42:00,
2013-03-02 13:52:00,31.0,31.0,30.25,WNW,300,8.0,10.0,100,0.00,,,0.00,,2013-03-02 19:52:00,
2013-03-02 14:01:00,31.0,31.0,30.25,NW,320,8.0,9.0,100,0.00,,,0.00,,2013-03-02 20:01:00,
2013-03-02 14:11:00,31.0,31.0,30.25,NW,320,8.0,9.0,100,0.00,,,0.00,,2013-03-02 20:11:00,
2013-03-02 14:22:00,31.0,31.0,30.24,NW,307,9.0,12.0,100,0.00,,,0.00,,2013-03-02 20:22:00,
2013-03-02 14:32:00,31.0,31.0,30.24,NW,322,9.0,13.0,100,0.00,,,0.00,,2013-03-02 20:32:00,
2013-03-02 14:42:00,31.0,31.0,30.24,NW,322,9.0,13.0,100,0.00,,,0.00,,2013-03-02 20:42:00,
2013-03-02 14:52:00,30.0,30.0,30.24,NW,306,9.0,9.0,100,0.00,,,0.00,,2013-03-02 20:52:00,
2013-03-02 15:02:00,30.0,30.0,30.24,NW,325,8.0,12.0,100,0.00,,,0.00,,2013-03-02 21:02:00,
2013-03-02 15:11:00,30.0,30.0,30.24,NW,325,8.0,12.0,100,0.00,,,0.00,,2013-03-02 21:11:00,
2013-03-02 15:22:00,30.0,30.0,30.24,WNW,295,9.0,12.0,100,0.00,,,0.00,,2013-03-02 21:22:00,
2013-03-02 15:32:00,29.0,29.0,30.24,NW,304,10.0,12.0,100,0.00,,,0.00,,2013-03-02 21:32:00,
2013-03-02 15:42:00,29.0,29.0,30.24,NW,304,10.0,12.0,100,0.00,,,0.00,,2013-03-02 21:42:00,
2013-03-02 15:52:00,29.0,29.0,30.24,NW,314,10.0,14.0,100,0.00,,,0.00,,2013-03-02 21:52:00,
2013-03-02 16:02:00,28.0,28.0,30.24,NW,315,10.0,14.0,100,0.00,,,0.00,,2013-03-02 22:02:00,
2013-03-02 16:11:00,28.0,28.0,30.24,NW,315,10.0,14.0,100,0.00,,,0.00,,2013-03-02 22:11:00,
2013-03-02 16:21:00,28.0,28.0,30.23,NW,305,9.0,12.0,100,0.00,,,0.00,,2013-03-02 22:21:00,
2013-03-02 16:32:00,27.0,27.0,30.23,NNW,327,9.0,12.0,100,0.00,,,0.00,,2013-03-02 22:32:00,
2013-03-02 16:42:00,27.0,27.0,30.23,NNW,327,9.0,12.0,100,0.00,,,0.00,,2013-03-02 22:42:00,
2013-03-02 16:51:00,27.0,27.0,30.24,NW,309,8.0,9.0,100,0.00,,,0.00,,2013-03-02 22:51:00,
2013-03-02 17:01:00,27.0,27.0,30.24,NW,315,9.0,9.0,100,0.00,,,0.00,,2013-03-02 23:01:00,
2013-03-02 17:11:00,26.0,26.0,30.25,WNW,300,9.0,9.0,100,0.00,,,0.00,,2013-03-02 23:11:00,
2013-03-02 17:21:00,26.0,26.0,30.25,WNW,300,9.0,9.0,100,0.00,,,0.00,,2013-03-02 23:21:00,
2013-03-02 17:32:00,26.0,26.0,30.25,NW,307,7.0,9.0,100,0.00,,,0.00,,2013-03-02 23:32:00,
2013-03-02 17:42:00,26.0,26.0,30.25,NW,307,7.0,9.0,100,0.00,,,0.00,,2013-03-02 23:42:00,
2013-03-02 17:52:00,26.0,26.0,30.25,NNW,329,8.0,9.0,100,0.00,,,0.00,,2013-03-02 23:52:00,
2013-03-02 18:02:00,25.0,25.0,30.25,NW,311,8.0,9.0,100,0.00,,,0.00,,2013-03-03 00:02:00,
2013-03-02 18:11:00,25.0,25.0,30.25,NW,311,8.0,9.0,100,0.00,,,0.00,,2013-03-03 00:11:00,
2013-03-02 18:22:00,24.0,24.0,30.26,WNW,297,8.0,9.0,100,0.00,,,0.00,,2013-03-03 00:22:00,
2013-03-02 18:32:00,23.0,23.0,30.25,NW,318,8.0,9.0,100,0.00,,,0.00,,2013-03-03 00:32:00,
2013-03-02 18:42:00,23.0,23.0,30.25,NW,318,8.0,9.0,100,0.00,,,0.00,,2013-03-03 00:42:00,
2013-03-02 18:52:00,22.0,22.0,30.26,NW,326,7.0,7.0,100,0.00,,,0.00,,2013-03-03 00:52:00,
2013-03-02 19:01:00,22.0,22.0,30.26,NW,326,7.0,7.0,100,0.00,,,0.00,,2013-03-03 01:01:00,
2013-03-02 19:11:00,22.0,22.0,30.26,NW,326,7.0,7.0,100,0.00,,,0.00,,2013-03-03 01:11:00,
2013-03-02 19:21:00,21.0,21.0,30.26,NW,308,6.0,7.0,100,0.00,,,0.00,,2013-03-03 01:21:00,
2013-03-02 19:32:00,21.0,21.0,30.26,NW,308,6.0,7.0,100,0.00,,,0.00,,2013-03-03 01:32:00,
2013-03-02 19:42:00,21.0,21.0,30.26,NW,308,6.0,7.0,100,0.00,,,0.00,,2013-03-03 01:42:00,
2013-03-02 19:52:00,20.0,20.0,30.26,WNW,297,3.0,5.0,100,0.00,,,0.00,,2013-03-03 01:52:00,
2013-03-02 20:01:00,20.0,20.0,30.26,NW,308,0.0,0.0,100,0.00,,,0.00,,2013-03-03 02:01:00,
2013-03-02 20:11:00,20.0,20.0,30.26,North,0,0.0,0.0,100,0.00,,,0.00,,2013-03-03 02:11:00,
2013-03-02 20:21:00,20.0,20.0,30.26,North,0,0.0,0.0,100,0.00,,,0.00,,2013-03-03 02:21:00,
2013-03-02 20:32:00,19.0,19.0,30.26,North,0,0.0,0.0,100,0.00,,,0.00,,2013-03-03 02:32:00,
2013-03-02 20:42:00,19.0,19.0,30.26,North,0,0.0,0.0,100,0.00,,,0.00,,2013-03-03 02:42:00,
2013-03-02 20:52:00,18.0,18.0,30.26,North,0,0.0,0.0,100,0.00,,,0.00,,2013-03-03 02:52:00,
2013-03-02 21:01:00,18.0,18.0,30.26,North,0,0.0,0.0,100,0.00,,,0.00,,2013-03-03 03:01:00,
2013-03-02 21:11:00,18.0,18.0,30.26,North,0,0.0,0.0,100,0.00,,,0.00,,2013-03-03 03:11:00,
2013-03-02 21:21:00,17.0,17.0,30.26,North,0,0.0,0.0,100,0.00,,,0.00,,2013-03-03 03:21:00,
2013-03-02 21:31:00,17.0,17.0,30.26,North,349,3.0,5.0,100,0.00,,,0.00,,2013-03-03 03:31:00,
2013-03-02 21:42:00,17.0,17.0,30.26,North,349,3.0,5.0,100,0.00,,,0.00,,2013-03-03 03:42:00,
2013-03-02 21:51:00,17.0,17.0,30.26,NW,304,6.0,6.0,100,0.00,,,0.00,,2013-03-03 03:51:00,
2013-03-02 22:01:00,17.0,17.0,30.26,WNW,299,5.0,6.0,100,0.00,,,0.00,,2013-03-03 04:01:00,
2013-03-02 22:11:00,17.0,17.0,30.26,WNW,299,5.0,6.0,100,0.00,,,0.00,,2013-03-03 04:11:00,
2013-03-02 22:21:00,16.0,16.0,30.26,WNW,301,3.0,5.0,100,0.00,,,0.00,,2013-03-03 04:21:00,
2013-03-02 22:32:00,16.0,16.0,30.26,North,0,0.0,0.0,100,0.00,,,0.00,,2013-03-03 04:32:00,
2013-03-02 22:42:00,16.0,16.0,30.26,North,0,0.0,0.0,100,0.00,,,0.00,,2013-03-03 04:42:00,
2013-03-02 22:51:00,16.0,16.0,30.25,North,0,0.0,0.0,100,0.00,,,0.00,,2013-03-03 04:51:00,
2013-03-02 23:02:00,17.0,17.0,30.25,North,0,0.0,0.0,100,0.00,,,0.00,,2013-03-03 05:02:00,
2013-03-02 23:11:00,17.0,17.0,30.25,North,0,0.0,0.0,100,0.00,,,0.00,,2013-03-03 05:11:00,
2013-03-02 23:22:00,17.0,17.0,30.24,North,0,0.0,0.0,100,0.00,,,0.00,,2013-03-03 05:22:00,
2013-03-02 23:32:00,17.0,17.0,30.25,North,0,0.0,0.0,100,0.00,,,0.00,,2013-03-03 05:32:00,
2013-03-02 23:42:00,17.0,17.0,30.25,North,0,0.0,0.0,100,0.00,,,0.00,,2013-03-03 05:42:00,
2013-03-02 23:52:00,16.0,16.0,30.24,North,0,0.0,0.0,100,0.00,,,0.00,,2013-03-03 05:52:00,